• In Belarus
  • List of Countries
  • For 7 days
  • Water Temperature
  • Satellite Maps
  • Weather Map
  • Weather Widgets
  • user-avatar
    Login

    Hourly Weather Saint-Césaire

    Today, 21 January, Sunday

    Time Temperature Precipitation Wind Pressure Humidity
    00:00 -4°C° 0 mm 2 mps 756 mmHg 85%
    01:00 -5°C° 0 mm 2 mps 757 mmHg 86%
    02:00 -4°C° 0 mm 1 mps 758 mmHg 86%
    03:00 -4°C° 0 mm 1 mps 758 mmHg 86%
    04:00 -4°C° 0 mm 1 mps 759 mmHg 86%
    05:00 -4°C° 0 mm 1 mps 759 mmHg 86%
    06:00 -6°C° 0 mm 1 mps 760 mmHg 87%
    07:00 -6°C° 0 mm 1 mps 760 mmHg 88%
    08:00 -6°C° 0 mm 1 mps 761 mmHg 85%
    09:00 -4°C° 0 mm 1 mps 761 mmHg 82%
    10:00 -4°C° 0 mm 1 mps 762 mmHg 79%
    11:00 -3°C° 0 mm 1 mps 761 mmHg 78%
    12:00 -2°C° 0 mm 1 mps 761 mmHg 77%
    13:00 -2°C° 0 mm 1 mps 761 mmHg 76%
    14:00 -2°C° 0 mm 1 mps 761 mmHg 79%
    15:00 -2°C° 0 mm 1 mps 761 mmHg 82%
    16:00 -3°C° 0 mm 0 mps 761 mmHg 85%
    17:00 -3°C° 0 mm 1 mps 762 mmHg 86%
    18:00 -3°C° 0 mm 1 mps 762 mmHg 87%
    19:00 -4°C° 0 mm 1 mps 762 mmHg 88%
    20:00 -4°C° 0 mm 1 mps 762 mmHg 89%
    21:00 -3°C° 0 mm 1 mps 763 mmHg 89%
    22:00 -4°C° 0 mm 0 mps 763 mmHg 89%
    23:00 -3°C° 0 mm 1 mps 763 mmHg 90%

    Tomorrow, 22 January, Monday

    Time Temperature Precipitation Wind Pressure Humidity
    00:00 -3°C° 0 mm 1 mps 763 mmHg 91%
    01:00 -2°C° 0 mm 1 mps 763 mmHg 91%
    02:00 -2°C° 0.1 mm 1 mps 763 mmHg 92%
    03:00 -5°C° 0.1 mm 2 mps 763 mmHg 92%
    04:00 -5°C° 0.1 mm 2 mps 763 mmHg 93%
    05:00 -5°C° 0.1 mm 2 mps 763 mmHg 93%
    06:00 -6°C° 0.1 mm 3 mps 764 mmHg 92%
    07:00 -7°C° 0.1 mm 3 mps 764 mmHg 92%
    08:00 -6°C° 0 mm 3 mps 764 mmHg 91%
    09:00 -6°C° 0 mm 3 mps 764 mmHg 90%
    10:00 -6°C° 0 mm 3 mps 764 mmHg 89%
    11:00 -5°C° 0 mm 3 mps 764 mmHg 89%
    12:00 -5°C° 0 mm 4 mps 763 mmHg 88%
    13:00 -4°C° 0 mm 4 mps 762 mmHg 88%
    14:00 -4°C° 0 mm 4 mps 762 mmHg 89%
    15:00 -4°C° 0 mm 4 mps 761 mmHg 89%
    16:00 -4°C° 0 mm 4 mps 761 mmHg 90%
    17:00 -3°C° 0.7 mm 4 mps 760 mmHg 91%
    18:00 -3°C° 0.7 mm 4 mps 760 mmHg 92%
    19:00 -2°C° 0.7 mm 4 mps 759 mmHg 92%
    20:00 -2°C° 1.4 mm 4 mps 758 mmHg 93%
    21:00 -1°C° 1.4 mm 4 mps 758 mmHg 93%
    22:00 0°C° 1.4 mm 3 mps 757 mmHg 94%
    23:00 +1°C° 0.5 mm 3 mps 756 mmHg 93%

    Day after tomorrow, 23 January, Tuesday

    Time Temperature Precipitation Wind Pressure Humidity
    00:00 +1°C° 0.5 mm 3 mps 755 mmHg 93%
    01:00 +1°C° 0.5 mm 3 mps 754 mmHg 92%
    02:00 +2°C° 0.7 mm 3 mps 753 mmHg 93%
    03:00 +2°C° 0.7 mm 3 mps 752 mmHg 94%
    04:00 +2°C° 0.7 mm 3 mps 752 mmHg 95%
    05:00 +2°C° 1.3 mm 3 mps 750 mmHg 95%
    06:00 +3°C° 1.3 mm 3 mps 749 mmHg 95%
    07:00 +3°C° 1.3 mm 3 mps 748 mmHg 95%
    08:00 +3°C° 0.5 mm 3 mps 747 mmHg 95%
    09:00 +3°C° 0.5 mm 3 mps 746 mmHg 96%
    10:00 +3°C° 0.5 mm 3 mps 745 mmHg 97%
    11:00 +3°C° 0.3 mm 3 mps 744 mmHg 97%
    12:00 +3°C° 0.3 mm 3 mps 743 mmHg 97%
    13:00 +3°C° 0.3 mm 3 mps 742 mmHg 98%
    14:00 +3°C° 0.9 mm 3 mps 742 mmHg 97%
    15:00 +2°C° 0.9 mm 3 mps 742 mmHg 96%
    16:00 +1°C° 0.9 mm 4 mps 742 mmHg 95%
    17:00 +1°C° 0.3 mm 4 mps 742 mmHg 93%
    18:00 +1°C° 0.3 mm 3 mps 743 mmHg 91%
    19:00 +1°C° 0.3 mm 3 mps 743 mmHg 89%
    20:00 +1°C° 0.1 mm 3 mps 743 mmHg 89%
    21:00 0°C° 0.1 mm 4 mps 742 mmHg 89%
    22:00 0°C° 0.1 mm 4 mps 742 mmHg 89%
    23:00 0°C° 0.2 mm 4 mps 742 mmHg 89%

    24 January, Wednesday

    Time Temperature Precipitation Wind Pressure Humidity
    00:00 0°C° 0.2 mm 5 mps 742 mmHg 88%
    01:00 -1°C° 0.2 mm 6 mps 742 mmHg 87%
    02:00 -2°C° 0.1 mm 6 mps 743 mmHg 85%
    03:00 -3°C° 0.1 mm 7 mps 744 mmHg 83%
    04:00 -6°C° 0.1 mm 8 mps 745 mmHg 81%
    05:00 -7°C° 0.1 mm 8 mps 746 mmHg 81%
    06:00 -8°C° 0.1 mm 8 mps 747 mmHg 81%
    07:00 -9°C° 0.1 mm 7 mps 749 mmHg 81%
    08:00 -11°C° 0.1 mm 8 mps 750 mmHg 79%
    09:00 -12°C° 0.1 mm 8 mps 751 mmHg 77%
    10:00 -12°C° 0.1 mm 8 mps 752 mmHg 75%
    11:00 -13°C° 0 mm 8 mps 752 mmHg 74%
    12:00 -13°C° 0 mm 7 mps 752 mmHg 73%
    13:00 -13°C° 0 mm 7 mps 752 mmHg 73%
    14:00 -14°C° 0 mm 7 mps 753 mmHg 73%
    15:00 -14°C° 0 mm 7 mps 753 mmHg 73%
    16:00 -14°C° 0 mm 7 mps 754 mmHg 74%
    17:00 -15°C° 0 mm 7 mps 755 mmHg 74%
    18:00 -15°C° 0 mm 7 mps 755 mmHg 74%
    19:00 -15°C° 0 mm 7 mps 756 mmHg 74%
    20:00 -16°C° 0 mm 6 mps 756 mmHg 75%
    21:00 -17°C° 0 mm 6 mps 757 mmHg 76%
    22:00 -17°C° 0 mm 6 mps 757 mmHg 76%
    23:00 -18°C° 0 mm 6 mps 758 mmHg 77%

    25 January, Thursday

    Time Temperature Precipitation Wind Pressure Humidity
    00:00 -18°C° 0 mm 6 mps 758 mmHg 77%
    01:00 -20°C° 0 mm 6 mps 758 mmHg 77%
    02:00 -20°C° 0 mm 6 mps 759 mmHg 77%
    03:00 -21°C° 0 mm 6 mps 759 mmHg 77%
    04:00 -21°C° 0 mm 6 mps 760 mmHg 77%
    05:00 -21°C° 0 mm 6 mps 760 mmHg 77%
    06:00 -22°C° 0 mm 6 mps 761 mmHg 77%
    07:00 -22°C° 0 mm 6 mps 761 mmHg 77%
    08:00 -22°C° 0 mm 6 mps 762 mmHg 76%
    09:00 -22°C° 0 mm 6 mps 762 mmHg 75%
    10:00 -22°C° 0 mm 6 mps 763 mmHg 74%
    11:00 -21°C° 0 mm 6 mps 763 mmHg 73%
    12:00 -21°C° 0 mm 7 mps 763 mmHg 73%
    13:00 -20°C° 0 mm 7 mps 763 mmHg 72%
    14:00 -20°C° 0 mm 6 mps 763 mmHg 73%
    15:00 -20°C° 0 mm 6 mps 763 mmHg 73%
    16:00 -20°C° 0 mm 6 mps 764 mmHg 74%
    17:00 -20°C° 0 mm 6 mps 765 mmHg 75%
    18:00 -20°C° 0 mm 6 mps 765 mmHg 75%
    19:00 -20°C° 0 mm 5 mps 766 mmHg 76%
    20:00 -20°C° 0 mm 5 mps 767 mmHg 77%
    21:00 -20°C° 0 mm 5 mps 767 mmHg 77%
    22:00 -19°C° 0 mm 4 mps 768 mmHg 78%
    23:00 -20°C° 0 mm 4 mps 768 mmHg 78%

    26 January, Friday

    Time Temperature Precipitation Wind Pressure Humidity
    00:00 -20°C° 0 mm 4 mps 769 mmHg 78%
    01:00 -20°C° 0 mm 4 mps 769 mmHg 79%
    02:00 -21°C° 0 mm 3 mps 770 mmHg 79%
    03:00 -21°C° 0 mm 3 mps 770 mmHg 80%
    04:00 -21°C° 0 mm 3 mps 771 mmHg 81%
    05:00 -21°C° 0 mm 3 mps 771 mmHg 81%
    06:00 -21°C° 0 mm 3 mps 772 mmHg 82%
    07:00 -22°C° 0 mm 3 mps 772 mmHg 82%
    08:00 -21°C° 0 mm 3 mps 773 mmHg 80%
    09:00 -21°C° 0 mm 3 mps 773 mmHg 78%
    10:00 -19°C° 0 mm 3 mps 773 mmHg 75%
    11:00 -18°C° 0 mm 3 mps 773 mmHg 74%
    12:00 -17°C° 0 mm 3 mps 773 mmHg 72%
    13:00 -16°C° 0 mm 3 mps 773 mmHg 71%
    14:00 -16°C° 0 mm 3 mps 773 mmHg 72%
    15:00 -16°C° 0 mm 3 mps 773 mmHg 74%
    16:00 -15°C° 0 mm 2 mps 773 mmHg 75%
    17:00 -15°C° 0 mm 2 mps 773 mmHg 78%
    18:00 -15°C° 0 mm 2 mps 774 mmHg 81%
    19:00 -13°C° 0 mm 1 mps 774 mmHg 83%
    20:00 -13°C° 0 mm 1 mps 774 mmHg 83%
    21:00 -13°C° 0 mm 1 mps 774 mmHg 83%
    22:00 -13°C° 0 mm 1 mps 774 mmHg 83%
    23:00 -13°C° 0 mm 1 mps 773 mmHg 82%
    Show more